�������l�o���
Date,Time,MP-1(��Sv/h),MP-2(��Sv/h),MP-3(��Sv/h),MP-4(��Sv/h),MP-5(��Sv/h),MP-6(��Sv/h),MP-7(��Sv/h),MP-8(��Sv/h),����,����(m/s),���J
2021/11/14,00:00,0.583,0.872,0.556,1.069,0.750,0.354,0.615,0.580,��,4.6,��
2021/11/14,00:10,0.583,0.873,0.554,1.068,0.750,0.354,0.616,0.578,��,4.2,��
2021/11/14,00:20,0.581,0.873,0.554,1.067,0.750,0.355,0.615,0.579,��,3.0,��
2021/11/14,00:30,0.582,0.872,0.555,1.067,0.750,0.355,0.615,0.579,��,1.5,��
2021/11/14,00:40,0.581,0.874,0.556,1.068,0.749,0.355,0.615,0.578,��,2.9,��
2021/11/14,00:50,0.581,0.873,0.554,1.071,0.749,0.355,0.616,0.579,��쐼,2.6,��
2021/11/14,01:00,0.582,0.873,0.555,1.071,0.750,0.355,0.615,0.579,��쐼,1.5,��
2021/11/14,01:10,0.582,0.873,0.556,1.068,0.748,0.353,0.615,0.580,��쐼,1.2,��
2021/11/14,01:20,0.583,0.874,0.556,1.069,0.750,0.355,0.615,0.579,��,3.4,��
2021/11/14,01:30,0.580,0.875,0.553,1.069,0.749,0.354,0.615,0.579,��쐼,3.0,��
2021/11/14,01:40,0.582,0.872,0.554,1.070,0.747,0.354,0.614,0.579,��,3.1,��
2021/11/14,01:50,0.581,0.873,0.554,1.070,0.747,0.355,0.615,0.580,��쐼,3.5,��
2021/11/14,02:00,0.580,0.872,0.555,1.068,0.747,0.354,0.614,0.579,�쐼,2.6,��
2021/11/14,02:10,0.581,0.873,0.555,1.068,0.748,0.356,0.616,0.580,�쐼,2.0,��
2021/11/14,02:20,0.581,0.874,0.555,1.067,0.750,0.354,0.616,0.579,��쐼,1.7,��
2021/11/14,02:30,0.583,0.871,0.555,1.070,0.746,0.355,0.616,0.580,�쐼,1.9,��
2021/11/14,02:40,0.581,0.875,0.552,1.068,0.750,0.354,0.614,0.580,�쐼,2.3,��
2021/11/14,02:50,0.582,0.871,0.554,1.067,0.750,0.355,0.613,0.580,�쐼,2.6,��
2021/11/14,03:00,0.581,0.873,0.554,1.068,0.748,0.353,0.616,0.579,��쐼,2.2,��
2021/11/14,03:10,0.580,0.872,0.555,1.071,0.748,0.355,0.616,0.579,�쐼,1.7,��
2021/11/14,03:20,0.582,0.871,0.554,1.067,0.749,0.354,0.615,0.578,�쐼,1.2,��
2021/11/14,03:30,0.582,0.873,0.554,1.070,0.748,0.354,0.615,0.582,�쐼,1.5,��
2021/11/14,03:40,0.583,0.872,0.555,1.069,0.748,0.354,0.614,0.581,�쐼,1.5,��
2021/11/14,03:50,0.581,0.873,0.556,1.068,0.748,0.356,0.614,0.579,�쐼,1.4,��
2021/11/14,04:00,0.581,0.874,0.555,1.067,0.749,0.355,0.616,0.581,��쐼,2.0,��
2021/11/14,04:10,0.580,0.871,0.556,1.068,0.748,0.355,0.616,0.580,��쐼,1.7,��
2021/11/14,04:20,0.581,0.872,0.555,1.070,0.748,0.355,0.616,0.580,��,1.2,��
2021/11/14,04:30,0.581,0.874,0.556,1.071,0.748,0.355,0.615,0.580,��쐼,1.2,��
2021/11/14,04:40,0.582,0.873,0.553,1.069,0.749,0.355,0.615,0.579,�쐼,1.2,��
2021/11/14,04:50,0.583,0.874,0.555,1.070,0.748,0.354,0.615,0.581,��,1.2,��
2021/11/14,05:00,0.580,0.873,0.554,1.069,0.748,0.355,0.614,0.579,��쓌,2.0,��
2021/11/14,05:10,0.581,0.873,0.555,1.069,0.749,0.354,0.615,0.579,�쓌,2.5,��
2021/11/14,05:20,0.582,0.874,0.553,1.069,0.747,0.356,0.615,0.581,���쓌,1.2,��
2021/11/14,05:30,0.582,0.873,0.556,1.068,0.748,0.355,0.616,0.581,-,CALM,��
2021/11/14,05:40,0.580,0.874,0.555,1.069,0.748,0.356,0.615,0.582,-,CALM,��
2021/11/14,05:50,0.582,0.874,0.556,1.069,0.749,0.355,0.615,0.581,���쓌,0.9,��
2021/11/14,06:00,0.582,0.873,0.556,1.069,0.750,0.355,0.617,0.580,-,CALM,��
2021/11/14,06:10,0.582,0.873,0.554,1.068,0.751,0.356,0.616,0.580,-,CALM,��
2021/11/14,06:20,0.582,0.873,0.555,1.068,0.748,0.354,0.614,0.580,�k��,1.2,��
2021/11/14,06:30,0.582,0.874,0.555,1.069,0.749,0.356,0.614,0.578,��,1.1,��
2021/11/14,06:40,0.583,0.873,0.555,1.067,0.749,0.355,0.616,0.578,���쐼,1.7,��
2021/11/14,06:50,0.582,0.875,0.556,1.068,0.750,0.355,0.616,0.580,���쐼,1.1,��
2021/11/14,07:00,0.581,0.871,0.555,1.071,0.750,0.355,0.615,0.580,��,1.5,��
2021/11/14,07:10,0.582,0.872,0.556,1.069,0.750,0.355,0.615,0.579,��,0.6,��
2021/11/14,07:20,0.583,0.873,0.555,1.070,0.751,0.355,0.615,0.580,��,1.1,��
2021/11/14,07:30,0.583,0.873,0.557,1.072,0.748,0.355,0.613,0.579,��,2.2,��
2021/11/14,07:40,0.584,0.873,0.556,1.070,0.750,0.356,0.615,0.581,��,2.2,��
2021/11/14,07:50,0.584,0.874,0.553,1.070,0.750,0.355,0.616,0.579,��,1.7,��
2021/11/14,08:00,0.582,0.876,0.555,1.069,0.750,0.355,0.616,0.579,��,1.2,��
2021/11/14,08:10,0.581,0.874,0.555,1.067,0.749,0.357,0.616,0.581,��,0.9,��
2021/11/14,08:20,0.582,0.873,0.556,1.071,0.749,0.357,0.615,0.580,���쐼,0.8,��
2021/11/14,08:30,0.582,0.876,0.557,1.068,0.752,0.355,0.615,0.580,-,CALM,��
2021/11/14,08:40,0.585,0.876,0.557,1.070,0.750,0.355,0.615,0.581,-,CALM,��
2021/11/14,08:50,0.584,0.876,0.555,1.070,0.749,0.356,0.617,0.581,-,CALM,��
2021/11/14,09:00,0.584,0.875,0.556,1.070,0.748,0.355,0.615,0.581,-,CALM,��
2021/11/14,09:10,0.584,0.875,0.556,1.070,0.750,0.356,0.616,0.581,-,CALM,��
2021/11/14,09:20,0.583,0.874,0.555,1.070,0.751,0.357,0.615,0.579,�k��,1.5,��
2021/11/14,09:30,0.584,0.874,0.556,1.070,0.752,0.356,0.616,0.583,-,CALM,��
2021/11/14,09:40,0.584,0.874,0.559,1.071,0.752,0.357,0.618,0.582,���쐼,1.2,��
2021/11/14,09:50,0.583,0.872,0.558,1.071,0.751,0.357,0.615,0.582,��,0.8,��
2021/11/14,10:00,0.582,0.874,0.557,1.072,0.752,0.357,0.616,0.582,-,CALM,��
2021/11/14,10:10,0.582,0.872,0.555,1.071,0.752,0.354,0.615,0.583,�쓌,1.2,��
2021/11/14,10:20,0.583,0.873,0.557,1.069,0.750,0.356,0.616,0.581,���쓌,1.1,��
2021/11/14,10:30,0.583,0.872,0.556,1.071,0.751,0.353,0.615,0.582,���k��,0.9,��
2021/11/14,10:40,0.583,0.871,0.559,1.071,0.750,0.353,0.615,0.581,���쓌,1.7,��
2021/11/14,10:50,0.581,0.873,0.555,1.070,0.751,0.355,0.615,0.582,��,1.5,��
2021/11/14,11:00,0.583,0.874,0.554,1.074,0.747,0.355,0.614,0.581,���쓌,1.5,��
2021/11/14,11:10,0.582,0.874,0.555,1.072,0.748,0.354,0.615,0.581,��,1.7,��
2021/11/14,11:20,0.584,0.873,0.555,1.073,0.749,0.354,0.614,0.582,���k��,1.5,��
2021/11/14,11:30,0.583,0.873,0.558,1.070,0.751,0.354,0.615,0.581,��,1.5,��
2021/11/14,11:40,0.583,0.873,0.557,1.069,0.748,0.355,0.615,0.582,���k��,1.7,��
2021/11/14,11:50,0.582,0.874,0.556,1.071,0.749,0.355,0.616,0.579,�k��,2.2,��
2021/11/14,12:00,0.584,0.876,0.556,1.073,0.750,0.356,0.617,0.580,���k��,2.2,��
2021/11/14,12:10,0.583,0.874,0.558,1.071,0.750,0.356,0.616,0.581,��,2.6,��
2021/11/14,12:20,0.582,0.878,0.557,1.073,0.751,0.357,0.618,0.581,���k��,1.7,��
2021/11/14,12:30,0.584,0.877,0.556,1.071,0.752,0.356,0.616,0.580,��,2.0,��
2021/11/14,12:40,0.585,0.876,0.556,1.073,0.750,0.356,0.616,0.579,�k��,2.0,��
2021/11/14,12:50,0.583,0.875,0.555,1.071,0.748,0.357,0.617,0.579,���k��,1.5,��
2021/11/14,13:00,0.586,0.875,0.555,1.072,0.751,0.355,0.617,0.579,�쓌,2.2,��
2021/11/14,13:10,0.584,0.877,0.556,1.072,0.750,0.356,0.616,0.578,��쓌,2.0,��
2021/11/14,13:20,0.585,0.877,0.555,1.073,0.752,0.357,0.615,0.578,��쓌,2.3,��
2021/11/14,13:30,0.584,0.877,0.555,1.073,0.751,0.357,0.616,0.579,�쓌,2.3,��
2021/11/14,13:40,0.582,0.877,0.555,1.070,0.750,0.357,0.616,0.579,�쓌,2.8,��
2021/11/14,13:50,0.584,0.876,0.558,1.071,0.752,0.358,0.615,0.580,��쓌,1.7,��
2021/11/14,14:00,0.584,0.876,0.555,1.073,0.750,0.357,0.616,0.579,���쓌,0.9,��
2021/11/14,14:10,0.584,0.877,0.556,1.072,0.752,0.355,0.614,0.579,�쓌,2.6,��
2021/11/14,14:20,0.585,0.875,0.556,1.072,0.751,0.357,0.617,0.579,�쓌,1.2,��
2021/11/14,14:30,0.583,0.876,0.556,1.070,0.750,0.357,0.617,0.577,��,3.3,��
2021/11/14,14:40,0.582,0.876,0.556,1.071,0.753,0.355,0.616,0.579,���쐼,2.9,��
2021/11/14,14:50,0.582,0.876,0.555,1.072,0.752,0.356,0.617,0.579,���쐼,3.3,��
2021/11/14,15:00,0.583,0.879,0.556,1.072,0.749,0.355,0.616,0.578,���쐼,2.6,��
2021/11/14,15:10,0.582,0.878,0.556,1.072,0.751,0.355,0.619,0.580,��,2.3,��
2021/11/14,15:20,0.581,0.875,0.555,1.072,0.752,0.356,0.619,0.580,���k��,3.0,��
2021/11/14,15:30,0.583,0.878,0.555,1.075,0.751,0.357,0.618,0.582,���k��,4.2,��
2021/11/14,15:40,0.582,0.879,0.557,1.075,0.750,0.356,0.618,0.582,��,3.1,��
2021/11/14,15:50,0.582,0.878,0.558,1.076,0.750,0.358,0.618,0.581,��,3.5,��
2021/11/14,16:00,0.583,0.879,0.558,1.072,0.749,0.355,0.619,0.581,���쐼,2.3,��
2021/11/14,16:10,0.582,0.879,0.556,1.072,0.751,0.358,0.619,0.581,��,4.3,��
2021/11/14,16:20,0.583,0.879,0.555,1.073,0.750,0.357,0.618,0.582,���쐼,3.8,��
2021/11/14,16:30,0.580,0.878,0.557,1.074,0.750,0.358,0.619,0.582,��,3.4,��
2021/11/14,16:40,0.583,0.879,0.557,1.074,0.750,0.357,0.617,0.579,���쐼,4.0,��
2021/11/14,16:50,0.584,0.876,0.557,1.072,0.751,0.357,0.619,0.581,���쐼,5.0,��
2021/11/14,17:00,0.584,0.880,0.558,1.073,0.754,0.356,0.618,0.581,���쐼,5.1,��
2021/11/14,17:10,0.586,0.879,0.559,1.073,0.753,0.357,0.618,0.582,��,4.7,��
2021/11/14,17:20,0.584,0.878,0.556,1.073,0.753,0.356,0.617,0.581,��,5.1,��
2021/11/14,17:30,0.585,0.879,0.557,1.074,0.752,0.357,0.619,0.582,���쐼,4.9,��
2021/11/14,17:40,0.585,0.877,0.557,1.073,0.752,0.357,0.617,0.582,���쐼,5.2,��
2021/11/14,17:50,0.584,0.880,0.558,1.075,0.754,0.357,0.617,0.580,���쐼,5.4,��
2021/11/14,18:00,0.585,0.877,0.558,1.074,0.752,0.356,0.617,0.581,���쐼,5.9,��
2021/11/14,18:10,0.584,0.877,0.557,1.072,0.752,0.356,0.616,0.581,���쐼,6.9,��
2021/11/14,18:20,0.586,0.879,0.557,1.072,0.753,0.357,0.617,0.582,��,6.0,��
2021/11/14,18:30,0.585,0.878,0.557,1.071,0.753,0.356,0.616,0.581,��,4.4,��
2021/11/14,18:40,0.584,0.879,0.556,1.073,0.753,0.355,0.617,0.581,��,4.1,��
2021/11/14,18:50,0.584,0.878,0.557,1.072,0.753,0.356,0.618,0.580,���k��,4.1,��
2021/11/14,19:00,0.585,0.879,0.558,1.072,0.754,0.357,0.618,0.581,��,3.4,��
2021/11/14,19:10,0.584,0.878,0.558,1.072,0.753,0.357,0.616,0.581,��,3.3,��
2021/11/14,19:20,0.584,0.878,0.558,1.074,0.752,0.357,0.618,0.580,���k��,3.2,��
2021/11/14,19:30,0.583,0.876,0.558,1.072,0.753,0.355,0.617,0.581,���k��,3.3,��
2021/11/14,19:40,0.585,0.878,0.557,1.073,0.753,0.357,0.618,0.582,�k��,3.2,��
2021/11/14,19:50,0.583,0.876,0.559,1.072,0.752,0.355,0.617,0.582,���k��,4.8,��
2021/11/14,20:00,0.584,0.877,0.556,1.072,0.751,0.355,0.619,0.581,���k��,4.8,��
2021/11/14,20:10,0.586,0.879,0.558,1.075,0.751,0.356,0.617,0.581,���k��,5.1,��
2021/11/14,20:20,0.585,0.877,0.557,1.072,0.750,0.356,0.618,0.580,���k��,4.4,��
2021/11/14,20:30,0.585,0.877,0.559,1.075,0.753,0.355,0.618,0.582,�k��,6.4,��
2021/11/14,20:40,0.585,0.878,0.558,1.073,0.752,0.357,0.618,0.580,�k��,6.5,��
2021/11/14,20:50,0.586,0.878,0.559,1.073,0.754,0.358,0.617,0.580,�k��,6.2,��
2021/11/14,21:00,0.587,0.876,0.558,1.073,0.752,0.355,0.617,0.582,�k��,7.1,��
2021/11/14,21:10,0.585,0.879,0.558,1.073,0.752,0.356,0.617,0.581,�k��,5.3,��
2021/11/14,21:20,0.586,0.877,0.557,1.073,0.752,0.356,0.617,0.581,�k�k��,2.5,��
2021/11/14,21:30,0.586,0.878,0.557,1.074,0.753,0.355,0.617,0.580,�k�k��,0.9,��
2021/11/14,21:40,0.585,0.877,0.557,1.076,0.752,0.356,0.617,0.582,�k,1.7,��
2021/11/14,21:50,0.585,0.879,0.558,1.074,0.752,0.357,0.619,0.583,�k�k��,2.0,��
2021/11/14,22:00,0.584,0.877,0.556,1.074,0.752,0.357,0.616,0.580,�k��,2.3,��
2021/11/14,22:10,0.585,0.876,0.558,1.073,0.752,0.356,0.619,0.580,���k��,2.9,��
2021/11/14,22:20,0.585,0.878,0.556,1.073,0.751,0.357,0.618,0.581,�k��,3.8,��
2021/11/14,22:30,0.586,0.877,0.559,1.074,0.752,0.357,0.618,0.581,���k��,3.7,��
2021/11/14,22:40,0.585,0.879,0.557,1.073,0.754,0.356,0.618,0.581,��,3.2,��
2021/11/14,22:50,0.586,0.876,0.558,1.073,0.752,0.357,0.619,0.581,���k��,3.3,��
2021/11/14,23:00,0.587,0.877,0.557,1.074,0.752,0.355,0.616,0.580,���k��,3.7,��
2021/11/14,23:10,0.585,0.877,0.556,1.074,0.752,0.355,0.616,0.580,���k��,3.3,��
2021/11/14,23:20,0.584,0.877,0.556,1.074,0.753,0.355,0.618,0.581,���k��,3.2,��
2021/11/14,23:30,0.584,0.876,0.558,1.074,0.753,0.355,0.617,0.580,�k��,2.3,��
2021/11/14,23:40,0.585,0.876,0.557,1.073,0.752,0.356,0.617,0.580,���k��,2.2,��
2021/11/14,23:50,0.585,0.877,0.557,1.070,0.752,0.355,0.617,0.581,���k��,2.6,��
